Notices

What's New in latest Release from April 7th, 2021:

- Updated Glossary, including Speed of Maximum Gust, and Total Hourly Precipitation

- Updated national and regional climate services offices contacts and prices information

- Addition of station inventory lists for 1981-2010, 1971-2000, and 1961-1990 Normals.

If you haven't already, please take our survey and provide feedback about our website: https://eccc.sondage-survey.ca/f/LanguageSelection.aspx?s=442ca660-fcf1-47c0-95a9-59707d6fd709

Hourly Data Report for June 29, 2003

TORONTO CITY
ONTARIO

43°40'00.000" N
79°24'00.000" W
112.50 m
6158355
71508
XTO

Download Data

Hourly Data (June 2003)
Hourly Data Report for June 29, 2003
TIME
LST
Temp Definition
°C
Dew Point Definition
°C
Rel Hum Definition
%
Precip. Amount Definition
mm

Wind Dir Definition
10's deg

Wind Spd Definition
km/h
Visibility Definition
km
Stn Press Definition
kPa
Hmdx Definition


Wind Chill Definition


Weather Definition


00:00 20.6 14.5 68   LegendMM LegendMM LegendMM 100.09     LegendNANA
01:00 19.9 13.3 66   LegendMM LegendMM LegendMM 100.09     LegendNANA
02:00 20.2 13.3 65   LegendMM LegendMM LegendMM 100.10     LegendNANA
03:00 19.6 13.6 68   LegendMM LegendMM LegendMM 100.08     LegendNANA
04:00 18.4 13.3 72   LegendMM LegendMM LegendMM 100.06     LegendNANA
05:00 17.5 14.1 80   LegendMM LegendMM LegendMM 100.08     LegendNANA
06:00 18.3 15.3 83   LegendMM LegendMM LegendMM 100.08     LegendNANA
07:00 19.6 15.4 77   LegendMM LegendMM LegendMM 100.14     LegendNANA
08:00 20.5 15.8 74   LegendMM LegendMM LegendMM 100.14 25   LegendNANA
09:00 22.1 16.2 69   LegendMM LegendMM LegendMM 100.14 27   LegendNANA
10:00 21.9 17.5 76   LegendMM LegendMM LegendMM 100.14 28   LegendNANA
11:00 21.2 16.8 76   LegendMM LegendMM LegendMM 100.15 26   LegendNANA
12:00 23.8 18.4 72   LegendMM LegendMM LegendMM 100.11 30   LegendNANA
13:00 24.9 19.1 70   LegendMM LegendMM LegendMM 100.05 32   LegendNANA
14:00 22.8 16.5 68   LegendMM LegendMM LegendMM 100.05 28   LegendNANA
15:00 23.0 16.2 66   LegendMM LegendMM LegendMM 100.05 28   LegendNANA
16:00 24.4 16.9 63   LegendMM LegendMM LegendMM 100.03 30   LegendNANA
17:00 22.8 17.3 71   LegendMM LegendMM LegendMM 100.04 28   LegendNANA
18:00 19.5 18.2 92   LegendMM LegendMM LegendMM 100.04     LegendNANA
19:00 18.0 15.6 86   LegendMM LegendMM LegendMM 100.22     LegendNANA
20:00 18.1 16.2 89   LegendMM LegendMM LegendMM 100.18     LegendNANA
21:00 18.4 17.1 92   LegendMM LegendMM LegendMM 100.19     LegendNANA
22:00 18.7 17.3 92   LegendMM LegendMM LegendMM 100.22     LegendNANA
23:00 18.1 16.9 93   LegendMM LegendMM LegendMM 100.25     LegendNANA

Notes on Data Quality.

Legend

  • E = Estimated
  • M = Missing
  • NA = Not Available*
  • [empty] = Indicates an unobserved value
Date modified: